Location: Chillicothe
(39.7950°N, 93.5520°W)
Time: 06:55:08
(UTC-06:00)

Explorer 11/Cluster Stage 4 - Pass Details

Date: 28 October 2019
Orbit: 467 x 1259 km, 28.8° (Epoch: 12 November)

Event Time Altitude Azimuth Distance (km) Brightness Sun altitude
Rises 09:03:00 0° 248° (WSW) 2,882 9.1 14.0°
Reaches altitude 10° 09:06:10 10° 228° (SW) 1,842 8.4 14.6°
Maximum altitude 09:08:50 16° 188° (S) 1,387 8.3 15.0°
Drops below altitude 10° 09:11:17 10° 147° (SSE) 1,677 9.7 15.4°
Sets 09:13:59 0° 125° (SE) 2,504 11.1 15.8°
